TimeEDT,TemperatureF,Dew PointF,Humidity,Sea Level PressureIn,VisibilityMPH,Wind Direction,Wind SpeedMPH,Gust SpeedMPH,PrecipitationIn,Events,Conditions,WindDirDegrees,DateUTC
12:56 AM,64.9,55.9,73,30.02,10.0,SSW,12.7,17.3,N/A,,Clear,210,2012-10-14 04:56:00
1:56 AM,63.9,55.9,75,30.01,10.0,SSW,11.5,-,N/A,,Clear,210,2012-10-14 05:56:00
2:56 AM,64.9,55.9,73,29.99,10.0,SSW,9.2,-,N/A,,Clear,200,2012-10-14 06:56:00
3:56 AM,63.9,55.9,75,29.99,10.0,South,11.5,-,N/A,,Clear,190,2012-10-14 07:56:00
4:56 AM,63.0,54.9,75,29.99,10.0,South,10.4,-,N/A,,Mostly Cloudy,190,2012-10-14 08:56:00
5:56 AM,61.9,54.0,75,29.98,10.0,South,12.7,19.6,N/A,,Clear,190,2012-10-14 09:56:00
6:56 AM,61.9,52.9,72,29.99,10.0,South,10.4,-,N/A,,Scattered Clouds,190,2012-10-14 10:56:00
7:05 AM,62.6,53.6,72,30.00,10.0,SSW,12.7,23.0,N/A,,Mostly Cloudy,200,2012-10-14 11:05:00
7:56 AM,61.9,52.0,70,29.97,10.0,South,15.0,21.9,N/A,,Overcast,190,2012-10-14 11:56:00
8:44 AM,62.6,51.8,68,29.98,9.0,SSW,15.0,23.0,N/A,,Mostly Cloudy,200,2012-10-14 12:44:00
8:56 AM,63.0,52.0,67,29.96,10.0,SSW,13.8,23.0,N/A,,Mostly Cloudy,200,2012-10-14 12:56:00
9:13 AM,62.6,51.8,68,29.96,10.0,South,16.1,24.2,N/A,,Overcast,190,2012-10-14 13:13:00
9:56 AM,63.9,52.0,65,29.93,10.0,SSW,15.0,31.1,N/A,,Mostly Cloudy,200,2012-10-14 13:56:00
10:06 AM,64.4,53.6,68,29.94,9.0,SSW,17.3,29.9,N/A,,Scattered Clouds,200,2012-10-14 14:06:00
10:56 AM,66.9,54.0,63,29.89,10.0,SSW,18.4,34.5,N/A,,Clear,200,2012-10-14 14:56:00
11:56 AM,68.9,54.9,61,29.86,9.0,SSW,24.2,35.7,N/A,,Scattered Clouds,200,2012-10-14 15:56:00
12:56 PM,70.0,54.9,59,29.83,10.0,SSW,21.9,33.4,N/A,,Mostly Cloudy,200,2012-10-14 16:56:00
1:56 PM,70.9,54.9,57,29.81,9.0,SSW,24.2,36.8,N/A,,Overcast,210,2012-10-14 17:56:00
2:56 PM,68.0,56.8,67,29.80,6.0,SSW,15.0,23.0,N/A,,Haze,200,2012-10-14 18:56:00
3:56 PM,66.9,59.0,76,29.75,9.0,South,16.1,21.9,N/A,,Mostly Cloudy,190,2012-10-14 19:56:00
4:56 PM,68.9,56.8,65,29.74,9.0,SSW,15.0,-,N/A,,Overcast,200,2012-10-14 20:56:00
5:56 PM,66.9,57.9,73,29.71,6.0,South,17.3,31.1,N/A,,Haze,180,2012-10-14 21:56:00
6:38 PM,64.4,57.2,77,29.72,2.5,South,17.3,24.2,0.01,,Haze,190,2012-10-14 22:38:00
6:46 PM,64.4,59.0,83,29.71,7.0,SSW,12.7,24.2,0.02,,Mostly Cloudy,200,2012-10-14 22:46:00
6:56 PM,63.9,59.0,84,29.70,8.0,SSW,15.0,23.0,0.02,,Scattered Clouds,200,2012-10-14 22:56:00
7:56 PM,63.0,57.9,84,29.69,10.0,SSW,17.3,21.9,N/A,,Clear,210,2012-10-14 23:56:00
8:56 PM,63.9,56.8,78,29.69,10.0,SSW,16.1,23.0,N/A,,Clear,210,2012-10-15 00:56:00
9:56 PM,63.9,56.8,78,29.71,10.0,SW,18.4,24.2,N/A,,Mostly Cloudy,220,2012-10-15 01:56:00
10:56 PM,57.9,54.9,90,29.75,2.5,West,20.7,28.8,0.02,,Overcast,260,2012-10-15 02:56:00
11:02 PM,57.2,55.4,94,29.76,2.5,West,16.1,25.3,0.03,,Overcast,260,2012-10-15 03:02:00
11:10 PM,57.2,55.4,94,29.76,2.5,West,17.3,-,0.05,,Overcast,260,2012-10-15 03:10:00
11:19 PM,57.2,53.6,88,29.77,3.0,WSW,16.1,-,0.06,,Mostly Cloudy,250,2012-10-15 03:19:00
11:56 PM,56.8,54.9,93,29.75,9.0,West,12.7,-,0.08,,Overcast,260,2012-10-15 03:56:00